Regional Weather Roundup
Issued by NWS

Home | Current Version | Previous Version | Text Only | Print | Product List | Glossary Off
Versions: 1 2 3 4 5 6 7 8 9 10 11 12 13 14 15 16 17 18 19 20 21 22 23 24 25 26 27 28 29 30 31 32 33 34 35 36 37 38 39 40 41 42 43 44 45 46 47 48 49 50

000
ASUS44 KMEG 200210
RWRTN
TENNESSEE HOURLY STATE WEATHER ROUNDUP
NATIONAL WEATHER SERVICE MEMPHIS TN
800 PM CST MON FEB 19 2018

TNZ002-004-019-021-049-052-054-088>092-200300-
WEST TENNESSEE

CITY           SKY/WX    TMP DP  RH WIND       PRES   REMARKS
MEMPHIS INTL   MOCLDY    70  54  56 S12       30.03S
NWS MEMPHIS      N/A     70 N/A N/A MISG        N/A
JACKSON        FAIR      70  62  76 S12G18    30.07S
DYERSBURG      FAIR      67  58  72 S8        30.04S
SOMERVILLE     CLEAR     70  59  68 SE5       30.05S
COVINGTON      CLEAR     68  59  73 SE9       30.04S
UNION CITY     CLEAR     66  57  72 S8        30.03F
BOLIVAR        CLEAR     68  61  77 SE7       30.07S
PARIS          CLEAR     66  59  77 SE8       30.06S
HUNTINGDON     CLEAR     68  61  77 S10       30.06F
LEXINGTON      PTCLDY    68  59  73 S5        30.10S
SELMER         CLEAR     66  61  82 S9        30.10S
SAVANNAH       MOCLDY    68  61  77 SE7       30.11S
$$

TNZ008-025-027-028-033-062-065-066-200300-
NORTH MIDDLE TENNESSEE

CITY           SKY/WX    TMP DP  RH WIND       PRES   REMARKS
NASHVILLE      MOCLDY    67  55  65 S8        30.15S
PORTLAND       PTCLDY    66  57  72 S6        30.13F
CLARKSVILLE    FAIR      67  55  65 S9        30.09F
SMYRNA         FAIR      62  56  80 S5        30.17R
COOKEVILLE     PTCLDY    64  57  77 S8        30.20S
GALLATIN       CLOUDY    66  55  68 SE3       30.17S
CROSSVILLE     CLOUDY    60  56  86 S8G16     30.25S
$$

TNZ061-075-076-078-094-096-097-200300-
SOUTH MIDDLE TENNESSEE

CITY           SKY/WX    TMP DP  RH WIND       PRES   REMARKS
FAYETTEVILLE   MOCLDY    68  55  64 S8        30.19R
TULLAHOMA      PTCLDY    68  54  60 S9        30.19R
WINCHESTER     CLEAR     66  54  63 S13       30.20S
MCMINNVILLE    CLEAR     64  57  77 VRB5      30.20R
COLUMBIA       CLEAR     68  61  77 S6G14     30.13S
SHELBYVILLE    MOCLDY    68  55  64 S7        30.18R
$$

TNZ017-018-042-046-047-200300-
NORTHEAST TENNESSEE

CITY           SKY/WX    TMP DP  RH WIND       PRES   REMARKS
TRI CITIES     FAIR      58  55  90 CALM      30.29R
ELIZABETHTON   FAIR      55  52  88 CALM      30.31R
$$

TNZ012-013-036-069-073-074-200300-
CENTRAL EAST TENNESSEE

CITY           SKY/WX    TMP DP  RH WIND       PRES   REMARKS
KNOXVILLE      CLOUDY    66  54  65 SW7       30.25R
OAK RIDGE      MOCLDY    62  58  86 CALM      30.26R
DOWNTOWN KNOXV MOCLDY    59  54  82 CALM      30.25S
GATLINBURG     PTCLDY    61  50  67 CALM      30.26R
JACKSBORO      MOCLDY    63  57  82 CALM      30.28R
$$

TNZ083-085-099-200300-
SOUTHEAST TENNESSEE

CITY           SKY/WX    TMP DP  RH WIND       PRES   REMARKS
CHATTANOOGA    MOCLDY    63  57  81 S7        30.26R
$$

SKY/WX REPORTED AS FAIR MEANS FEW OR NO CLOUDS BELOW
12 THOUSAND FEET.




USA.gov is the U.S. government's official web portal to all federal, state and local government web resources and services.